This is the latest recevied weather packets stored in our database for station/object G4KVI. If no packets are shown the sender has not sent any weather packets the latest 10 day(s).
| Time | Temp. | Humidity | Pressure | Rain* | Wind** | Luminosity | Snow |
|---|---|---|---|---|---|---|---|
| 1777998368 | 15.56° C | 47% | 1014.8 hPa | 0 mm | - | 410 W/m² | - |
| 1777998068 | 16.11° C | 46% | 1014.8 hPa | 0 mm | - | 378 W/m² | - |
| 1777997768 | 16.11° C | 47% | 1014.9 hPa | 0 mm | - | 373 W/m² | - |
| 1777997468 | 16.11° C | 47% | 1014.8 hPa | 0 mm | - | 374 W/m² | - |
| 1777997168 | 15.56° C | 47% | 1014.7 hPa | 0 mm | - | 390 W/m² | - |
| 1777996868 | 15.56° C | 48% | 1014.9 hPa | 0 mm | - | 417 W/m² | - |
| 1777996568 | 15.56° C | 48% | 1014.8 hPa | 0 mm | - | 422 W/m² | - |
| 1777996268 | 16.11° C | 47% | 1014.7 hPa | 0 mm | - | 192 W/m² | - |
| 1777995968 | 16.67° C | 45% | 1014.9 hPa | 0 mm | - | 450 W/m² | - |
| 1777995668 | 16.11° C | 46% | 1014.7 hPa | 0 mm | - | 462 W/m² | - |
| 1777995368 | 15.56° C | 47% | 1014.8 hPa | 0 mm | - | 546 W/m² | - |
| 1777995068 | 16.11° C | 47% | 1015 hPa | 0 mm | - | 575 W/m² | - |
| 1777994768 | 16.11° C | 46% | 1015 hPa | 0 mm | - | 409 W/m² | - |
| 1777994468 | 15.56° C | 46% | 1015 hPa | 0 mm | - | 570 W/m² | - |
| 1777994168 | 16.11° C | 46% | 1015 hPa | 0 mm | - | 202 W/m² | - |
| 1777993868 | 16.11° C | 46% | 1015.1 hPa | 0 mm | - | 656 W/m² | - |
| 1777993568 | 15.56° C | 46% | 1015.1 hPa | 0 mm | - | 524 W/m² | - |
| 1777993268 | 15.56° C | 45% | 1014.9 hPa | 0 mm | - | 463 W/m² | - |
| 1777992968 | 15° C | 46% | 1015 hPa | 0 mm | - | 545 W/m² | - |
| 1777992668 | 15° C | 47% | 1015.2 hPa | 0 mm | - | 212 W/m² | - |
| 1777992368 | 15.56° C | 46% | 1015.1 hPa | 0 mm | - | 212 W/m² | - |
| 1777992068 | 16.11° C | 46% | 1015.2 hPa | 0 mm | - | 243 W/m² | - |
| 1777991768 | 15.56° C | 46% | 1015.4 hPa | 0 mm | - | 629 W/m² | - |
| 1777991468 | 15.56° C | 46% | 1015.2 hPa | 0 mm | - | 574 W/m² | - |
| 1777991168 | 15° C | 46% | 1015 hPa | 0 mm | - | 562 W/m² | - |
* Rain latest hour (hover to see other rain measurements)
** Current wind speed in m/s (hover to see current wind gust speed)